Vorticity
3 3 10 7 10 9 7 4 12 2 1 10 8 6 1 6 4 11 9 6 8 4 4 5 7 6 5 5 7 7 7 7 7 7 6 8 5 5 8 5 4 6 5
7 -1 18 20 6 4 5 7 4 14 -13 -9 2 -5 7 4 4 5 10 7 7 6 4 8 6 6 6 7 7 7 7 8 8 7 7 8 7 6 6 6 6 7 10
7 5 1 10 7 3 7 7 1 -6 11 22 8 1 9 3 5 6 9 12 9 5 5 5 5 7 6 8 7 8 7 7 7 8 9 9 8 8 8 8 7 7 6
4 7 3 14 12 5 8 6 5 7 3 -1 7 7 9 1 3 3 7 14 7 5 4 6 5 5 8 8 7 5 6 5 6 7 6 7 6 5 4 4 4 5 5
9 8 6 9 9 9 3 7 -6 8 3 3 4 8 1 5 2 3 4 12 7 5 6 6 5 7 8 9 4 6 7 7 6 5 5 5 5 5 5 6 6 6 6
10 9 8 7 17 7 8 3 0 14 2 -2 7 3 6 7 -0 5 5 9 11 7 6 6 6 7 6 5 5 6 3 2 3 9 7 6 6 6 5 5 6 6 6
13 9 9 5 6 16 9 -0 5 -2 -0 -3 10 4 5 7 -1 4 5 10 9 7 8 6 6 6 6 5 6 5 5 5 10 6 6 6 6 7 6 7 7 8 8
13 9 12 10 6 17 9 6 -0 8 22 7 4 9 5 3 -5 6 6 9 7 8 7 5 4 6 7 7 5 7 7 6 6 7 6 6 7 8 9 9 9 8 8
16 10 6 10 12 8 21 6 -5 -40 12 23 5 2 3 2 -11 9 7 8 8 7 5 4 5 8 7 6 8 6 6 5 7 6 7 9 11 9 7 6 6 6 6
12 14 11 8 9 6 5 21 2 -33 -24 3 0 3 4 6 7 4 12 7 5 10 4 5 7 7 9 11 8 8 6 9 6 8 9 8 6 6 7 7 8 8 8
26 20 9 4 6 6 6 13 8 8 -0 73 1 2 7 14 -9 0 6 7 9 1 5 7 9 10 12 7 6 4 5 7 8 7 6 6 6 6 7 7 7 6 4
15 12 11 21 19 12 10 11 8 22 0 53 1 7 10 7 20 9 -3 5 6 5 6 8 7 8 9 7 6 5 5 3 10 5 5 5 5 5 5 4 3 2 1
10 11 4 14 12 11 10 10 4 -1 -1 47 13 9 -3 9 12 14 9 4 3 4 6 6 7 6 7 6 7 3 6 4 7 5 5 4 3 5 4 3 2 2 3
9 6 13 24 11 5 12 4 31 43 -5 12 1 -0 -3 -1 20 -2 3 3 5 5 7 6 6 7 6 4 4 8 8 4 8 3 4 3 2 5 4 4 5 4 5
10 5 8 6 6 7 24 21 24 -2 23 33 10 7 -4 16 -6 8 -0 3 4 5 5 6 7 6 6 5 6 8 5 5 8 4 5 6 7 7 6 3 3 3 2
10 13 10 10 11 10 8 8 20 11 32 16 -23 2 14 4 24 21 2 2 4 7 6 5 4 6 6 6 8 6 2 4 10 7 8 8 6 4 3 2 2 3 3
9 12 10 22 13 11 4 5 5 -11 2 37 -14 2 11 33 24 4 2 5 3 6 6 4 1 6 6 10 7 7 8 8 7 7 5 3 3 3 2 2 2 2 2
7 12 12 20 18 13 6 3 1 9 -20 28 6 34 18 24 10 11 3 11 2 8 5 5 1 7 6 7 7 6 6 3 6 4 2 2 2 1 2 2 2 2 3
5 8 13 24 21 9 5 5 6 6 29 21 19 7 22 3 -3 11 5 9 9 1 8 5 5 5 5 6 7 5 4 4 2 3 6 2 2 3 4 2 2 2 2
6 7 13 23 10 16 -0 6 1 25 27 28 22 8 11 5 14 34 5 5 8 -6 10 5 5 4 3 5 8 6 6 4 3 4 4 6 6 4 1 2 6 17 8
8 5 12 21 12 17 2 14 23 24 2 33 16 17 10 33 0 -2 -2 1 5 4 6 4 5 3 4 7 4 6 7 4 4 5 6 6 5 4 6 5 6 10 18
11 6 10 14 19 3 15 15 10 9 29 -4 -2 11 33 7 6 -5 -4 8 4 7 8 8 3 4 3 3 7 5 9 6 5 5 5 5 5 4 4 2 1 -1 5
11 6 9 11 17 15 21 8 -0 20 15 15 -26 29 16 11 11 -4 -2 -9 4 1 -4 -0 1 2 4 2 5 8 8 8 12 7 8 14 9 6 5 4 4 4 -0
12 8 8 9 12 21 13 5 5 13 4 20 20 16 3 23 13 3 1 1 8 2 -1 -3 -0 2 -2 -4 4 -2 5 14 2 23 7 7 -0 7 6 4 3 0 -6
4 12 8 8 9 16 20 16 2 9 10 14 -0 -1 21 36 7 9 5 -7 -5 8 -5 5 0 1 -1 4 -6 6 3 6 5 -7 -5 -4 -8 -5 -3 2 5 3 7
7 12 8 8 7 11 18 13 14 12 6 12 20 20 13 24 13 17 13 1 -0 -5 7 -2 3 -2 0 -1 1 8 4 2 3 6 7 5 4 8 8 3 -3 -3 2
Height
3118 3118 3117 3117 3119 3120 3121 3123 3126 3127 3129 3130 3131 3133 3135 3136 3137 3139 3141 3143 3144 3145 3146 3148 3150 3152 3154 3155 3158 3159 3160 3162 3163 3165 3165 3166 3168 3170 3172 3172 3173 3174 3174
3115 3117 3116 3116 3117 3118 3119 3122 3124 3126 3128 3129 3129 3131 3134 3136 3136 3138 3140 3141 3144 3145 3147 3148 3151 3153 3155 3157 3157 3159 3161 3163 3164 3166 3167 3167 3168 3170 3171 3172 3172 3173 3174
3112 3114 3113 3115 3116 3117 3117 3118 3120 3122 3125 3127 3129 3129 3132 3134 3135 3138 3139 3141 3143 3145 3146 3149 3152 3154 3155 3157 3159 3161 3161 3162 3164 3165 3166 3168 3169 3169 3171 3172 3173 3173 3174
3109 3111 3111 3112 3113 3114 3115 3115 3117 3119 3121 3122 3126 3129 3130 3133 3134 3136 3138 3141 3142 3144 3145 3150 3152 3153 3156 3159 3159 3160 3161 3161 3163 3165 3166 3168 3168 3170 3170 3172 3173 3174 3175
3107 3105 3108 3109 3109 3111 3113 3114 3115 3117 3118 3119 3122 3126 3129 3131 3133 3135 3137 3140 3142 3144 3146 3149 3151 3154 3156 3158 3157 3160 3161 3163 3164 3165 3167 3168 3168 3170 3171 3172 3173 3173 3175
3104 3101 3103 3105 3105 3106 3109 3111 3112 3114 3116 3117 3119 3123 3127 3129 3131 3134 3136 3139 3142 3144 3146 3147 3151 3153 3155 3156 3159 3161 3161 3162 3163 3166 3167 3168 3169 3170 3171 3171 3172 3173 3175
3100 3097 3099 3100 3101 3103 3105 3107 3108 3109 3110 3113 3117 3119 3124 3127 3130 3133 3135 3139 3141 3142 3145 3149 3149 3152 3155 3158 3160 3161 3160 3161 3163 3164 3166 3168 3170 3171 3172 3173 3174 3175 3176
3095 3093 3093 3095 3096 3097 3101 3102 3101 3099 3099 3109 3113 3117 3121 3124 3127 3132 3133 3136 3140 3144 3145 3146 3150 3153 3155 3157 3159 3160 3160 3161 3162 3165 3167 3168 3170 3171 3172 3173 3174 3175 3177
3089 3089 3088 3090 3092 3092 3095 3095 3093 3077 3093 3099 3111 3114 3118 3122 3125 3129 3133 3136 3139 3141 3145 3146 3150 3153 3154 3156 3158 3159 3160 3161 3163 3164 3167 3169 3170 3171 3172 3173 3175 3176 3178
3081 3082 3083 3084 3087 3086 3090 3088 3082 3091 3098 3078 3105 3112 3115 3120 3123 3128 3131 3134 3136 3141 3145 3148 3150 3151 3154 3155 3157 3159 3161 3163 3163 3166 3167 3169 3170 3172 3173 3175 3176 3177 3179
3072 3075 3077 3079 3082 3081 3083 3085 3084 3088 3090 3068 3102 3107 3112 3116 3121 3125 3129 3133 3136 3139 3143 3146 3149 3151 3153 3154 3157 3159 3161 3162 3165 3167 3168 3170 3171 3172 3174 3176 3177 3178 3180
3070 3071 3072 3073 3075 3076 3079 3081 3083 3086 3086 3070 3100 3102 3108 3113 3118 3125 3125 3132 3136 3140 3142 3145 3147 3149 3152 3154 3156 3159 3162 3161 3165 3167 3169 3170 3172 3174 3176 3177 3178 3179 3180
3069 3070 3071 3071 3071 3074 3077 3079 3081 3082 3083 3081 3093 3097 3104 3111 3116 3121 3122 3129 3134 3138 3141 3143 3146 3149 3152 3154 3156 3159 3161 3162 3165 3168 3169 3171 3173 3175 3176 3177 3178 3179 3180
3069 3069 3068 3066 3068 3072 3073 3076 3075 3080 3084 3090 3094 3099 3106 3110 3113 3117 3122 3128 3132 3137 3139 3143 3145 3148 3150 3154 3156 3160 3160 3161 3166 3168 3170 3172 3173 3174 3175 3176 3177 3179 3180
3068 3069 3068 3066 3065 3067 3071 3072 3072 3077 3083 3089 3095 3098 3103 3109 3113 3114 3122 3126 3130 3135 3138 3141 3144 3148 3150 3153 3155 3158 3159 3160 3166 3167 3169 3171 3173 3174 3175 3175 3176 3178 3179
3067 3067 3067 3065 3064 3065 3069 3071 3071 3076 3081 3086 3089 3094 3099 3105 3109 3113 3119 3124 3128 3134 3137 3140 3144 3147 3149 3152 3155 3157 3158 3160 3164 3166 3169 3171 3172 3173 3174 3174 3176 3177 3178
3065 3064 3064 3063 3062 3062 3064 3066 3071 3074 3078 3080 3086 3091 3095 3101 3106 3111 3118 3123 3128 3132 3136 3138 3142 3145 3148 3151 3153 3156 3159 3160 3163 3166 3168 3169 3171 3172 3173 3174 3175 3175 3176
3063 3061 3059 3059 3061 3061 3061 3063 3066 3068 3070 3075 3081 3087 3093 3098 3103 3111 3116 3122 3127 3129 3134 3137 3141 3144 3146 3149 3152 3155 3158 3159 3161 3165 3166 3167 3169 3171 3170 3171 3172 3173 3174
3060 3058 3056 3055 3057 3059 3060 3061 3063 3064 3064 3071 3076 3083 3088 3096 3101 3107 3115 3120 3125 3127 3131 3135 3139 3142 3145 3147 3151 3154 3156 3158 3160 3162 3162 3166 3168 3168 3168 3169 3170 3170 3170
3059 3056 3055 3053 3054 3056 3057 3059 3059 3057 3060 3065 3071 3077 3084 3091 3098 3103 3108 3114 3120 3125 3128 3133 3137 3140 3143 3146 3149 3152 3154 3156 3159 3160 3162 3161 3162 3164 3166 3166 3167 3167 3166
3058 3056 3054 3053 3053 3054 3056 3056 3057 3053 3055 3062 3069 3077 3082 3087 3095 3100 3104 3110 3116 3120 3126 3130 3135 3138 3142 3144 3146 3149 3151 3154 3155 3158 3159 3160 3161 3160 3159 3162 3163 3162 3163
3056 3055 3053 3052 3052 3053 3053 3054 3053 3054 3059 3064 3067 3075 3081 3087 3092 3096 3100 3108 3113 3118 3122 3128 3132 3136 3139 3141 3144 3146 3148 3151 3152 3154 3155 3157 3157 3158 3160 3157 3157 3159 3160
3054 3053 3052 3052 3051 3052 3052 3053 3052 3055 3060 3064 3068 3073 3079 3082 3088 3093 3099 3106 3113 3117 3119 3122 3128 3134 3137 3139 3141 3143 3144 3146 3148 3149 3151 3151 3153 3154 3154 3155 3154 3153 3154
3053 3052 3051 3050 3050 3050 3051 3053 3055 3056 3058 3063 3069 3073 3076 3081 3085 3091 3096 3103 3110 3115 3116 3119 3126 3130 3132 3135 3138 3140 3141 3143 3143 3142 3145 3146 3146 3149 3150 3150 3149 3150 3150
3051 3051 3050 3049 3049 3049 3050 3052 3054 3056 3059 3063 3066 3070 3074 3079 3083 3087 3093 3100 3106 3109 3114 3115 3122 3125 3128 3131 3134 3137 3138 3140 3141 3141 3140 3142 3142 3143 3145 3146 3145 3144 3143
3049 3049 3049 3049 3049 3049 3049 3051 3052 3054 3058 3060 3064 3067 3071 3075 3079 3084 3090 3096 3100 3105 3109 3112 3117 3121 3124 3126 3128 3130 3133 3135 3136 3137 3137 3137 3135 3135 3136 3137 3140 3139 3138